EHI
0 0 0 0 0 0 0 0 0 0 0 0 0 0 1 2 2 2 2 1 2 3 6 9 11 13 14 15 15 16 16 15 11 8 6 4 1 0 0 1 1 1 1 3
0 0 0 0 0 0 0 0 0 0 0 0 0 0 1 2 1 1 1 0 1 2 6 10 13 14 14 15 15 16 17 15 12 10 8 5 3 1 1 1 2 1 2 2
0 0 0 0 0 0 0 0 0 0 0 0 0 0 1 1 1 0 0 0 1 2 5 9 13 14 14 14 14 14 16 17 15 13 10 8 6 4 2 2 2 2 2 2
0 0 0 0 0 0 0 0 0 0 0 0 0 0 0 1 1 1 2 3 2 2 4 8 12 13 13 13 13 13 16 19 20 17 15 12 8 5 3 3 4 3 2 2
0 0 0 0 0 0 0 0 0 0 0 0 0 0 0 0 1 2 4 6 6 5 6 10 12 13 13 13 13 14 17 22 24 23 21 17 11 6 4 4 5 5 3 3
0 0 0 0 0 0 0 0 0 0 0 0 0 0 0 0 1 2 4 8 11 11 12 14 16 16 14 13 13 14 18 23 26 25 23 21 16 11 8 7 7 5 4 5
0 0 0 0 0 0 0 0 0 0 0 0 0 0 0 0 0 1 3 8 14 16 19 23 25 23 19 14 13 14 19 23 25 24 23 23 21 17 13 11 10 7 5 6
0 0 0 0 0 0 0 0 0 0 0 0 0 0 0 0 1 2 4 9 15 19 23 30 34 33 26 19 15 16 19 21 21 22 21 22 22 18 16 16 15 14 12 10
0 0 0 0 0 0 0 0 0 0 0 0 0 0 0 1 1 3 5 9 14 17 21 28 35 37 33 25 21 20 19 18 17 18 18 19 20 19 19 21 20 18 17 16
0 0 0 0 0 0 0 0 0 0 0 0 0 0 1 2 1 2 4 7 10 13 16 22 28 33 34 31 27 24 21 18 17 17 17 17 19 19 20 22 22 20 20 21
0 0 0 0 0 0 0 0 0 0 0 0 0 0 1 2 1 1 3 5 7 9 11 16 23 29 32 32 31 29 25 22 21 20 20 19 20 20 20 20 20 20 22 24
0 0 0 0 0 0 0 0 0 0 0 0 0 0 0 1 1 3 5 7 7 8 10 16 22 29 30 30 30 31 29 27 26 25 25 25 24 22 21 19 19 20 22 23
0 0 0 0 0 0 0 0 0 0 0 0 0 0 0 2 3 5 8 11 11 12 15 20 25 29 30 28 29 31 30 29 30 31 30 30 28 27 24 21 20 21 22 22
0 0 0 0 0 0 0 0 0 0 0 0 0 0 2 5 7 9 12 14 16 18 21 23 25 28 31 32 32 32 30 29 31 33 33 32 30 29 27 24 22 22 22 22
0 0 0 0 0 0 0 0 0 0 0 0 0 0 3 8 11 12 14 17 20 21 21 22 24 28 32 34 34 32 30 29 30 31 31 30 28 28 26 24 22 21 20 19
0 0 0 0 0 0 0 0 0 0 0 0 0 1 5 10 13 13 14 18 20 21 22 22 24 27 30 32 33 32 31 31 31 30 27 26 27 27 24 22 21 20 19 18
0 0 0 0 0 0 0 0 0 0 0 0 0 2 7 12 13 12 13 16 17 19 24 27 27 26 26 27 30 31 32 33 33 30 26 25 27 28 24 21 22 23 22 20
0 0 0 0 0 0 0 0 0 0 0 0 1 4 9 13 12 10 10 11 13 16 24 31 31 26 24 25 26 29 32 34 32 30 27 27 28 28 26 24 24 26 25 22
0 0 0 0 0 0 0 0 0 0 1 1 2 5 9 11 10 8 7 8 11 16 24 31 32 28 26 26 26 27 29 31 29 26 26 27 28 28 27 25 24 24 23 22
0 0 0 0 0 0 0 0 0 0 1 2 4 7 10 10 8 8 9 10 13 18 24 30 32 31 31 30 30 29 28 28 25 22 22 24 26 27 27 26 24 22 21 20
0 0 0 0 0 0 0 0 0 1 2 4 6 9 11 10 10 12 13 14 17 20 23 28 31 32 30 29 30 31 30 27 23 21 21 23 24 24 25 25 24 21 19 18
0 0 0 0 0 0 0 1 1 3 5 7 9 11 13 13 14 15 16 17 19 20 22 24 26 26 25 24 27 30 28 25 23 23 21 21 21 20 21 22 22 20 18 16
0 0 0 0 0 1 1 2 3 5 8 10 11 13 14 16 17 16 16 18 19 20 21 21 20 20 19 19 21 23 22 21 21 21 19 18 17 17 17 17 17 17 15 13
0 0 0 0 0 1 1 3 5 7 10 12 12 14 16 18 18 16 15 16 17 18 19 18 17 17 17 16 16 16 16 16 16 15 14 14 14 15 15 13 12 11 10 9
0 0 0 0 0 1 3 5 6 8 10 11 12 15 17 17 16 13 12 12 11 12 15 16 16 16 16 14 13 13 11 10 9 9 9 10 11 12 12 10 8 6 5 5
0 0 0 0 1 2 5 6 6 7 8 10 13 15 16 15 12 10 9 7 6 8 13 16 16 16 15 14 13 12 10 8 6 6 7 7 8 9 10 9 5 3 2 2
Wind_Speed
5 7 6 3 3 4 4 3 1 1 1 4 3 2 5 8 9 9 9 10 11 11 11 11 11 11 11 10 10 9 9 8 6 5 4 4 4 3 3 3 3 4 4 4
7 7 2 2 3 4 5 5 2 2 1 4 3 3 4 7 9 9 10 10 11 11 11 11 11 12 12 11 11 10 9 8 7 5 4 3 2 3 2 2 2 4 4 4
9 2 2 4 6 7 6 4 2 1 2 5 5 5 6 7 8 8 8 9 10 10 11 12 12 12 12 12 12 10 10 9 8 7 5 3 3 4 4 4 3 4 4 4
7 4 5 7 7 7 5 2 3 4 6 2 3 4 3 5 7 7 8 9 10 10 11 11 13 13 13 12 11 10 9 9 8 8 7 7 5 4 3 3 2 3 4 4
6 5 7 8 5 6 3 1 4 5 6 6 5 6 2 5 3 4 6 8 8 9 11 11 12 12 12 12 11 10 9 9 8 8 8 7 6 5 3 3 3 4 4 4
7 5 6 5 3 4 4 5 5 7 7 7 4 6 2 2 1 1 2 5 7 8 9 10 10 10 11 11 10 10 10 9 8 8 8 8 7 6 5 4 4 4 4 4
9 8 6 5 6 7 9 9 6 7 6 4 1 5 1 3 2 2 1 2 5 7 8 9 10 10 10 11 11 10 10 9 9 9 8 8 7 7 6 6 5 4 4 3
10 9 8 7 7 6 8 10 7 6 5 2 4 4 2 3 3 2 1 2 4 6 6 7 8 8 9 10 10 10 9 9 9 8 8 7 7 6 5 5 5 4 4 4
7 6 6 5 5 8 7 8 7 9 9 8 4 2 2 1 1 2 3 3 4 4 5 6 7 7 8 9 9 9 9 8 8 7 7 6 6 6 5 5 6 5 4 4
7 7 7 6 7 4 6 5 6 8 7 8 6 6 2 1 0 1 2 3 3 4 5 6 6 7 7 8 9 9 8 7 6 6 5 5 5 5 5 5 5 5 5 5
9 9 8 9 9 8 7 8 8 7 8 9 7 1 3 1 1 1 2 3 3 3 5 5 5 6 7 7 7 8 7 7 6 6 5 4 4 4 4 4 4 4 4 4
8 9 8 8 4 4 8 8 9 9 7 8 9 1 3 2 1 1 2 4 3 3 4 5 5 5 6 6 7 7 7 7 7 6 5 5 4 4 4 4 4 4 4 4
5 8 9 10 10 9 9 8 10 10 8 9 11 3 5 3 2 2 2 3 4 4 4 4 5 5 4 5 5 5 6 6 6 6 6 5 5 5 5 4 4 4 4 4
7 10 11 11 6 6 9 10 11 12 10 10 10 5 4 3 2 2 2 3 3 4 4 4 4 4 4 4 4 4 4 4 5 5 5 4 4 4 4 4 4 3 3 4
7 11 11 11 8 8 10 11 11 13 12 12 10 8 5 4 3 2 2 3 3 3 3 3 4 4 3 4 3 4 3 3 3 4 4 3 3 3 3 3 3 3 3 3
6 9 9 11 10 10 12 12 12 13 12 12 11 8 2 3 3 3 3 4 3 3 3 3 3 3 3 3 3 3 3 3 3 3 3 2 2 3 2 2 2 2 3 3
7 8 9 11 10 11 14 11 11 10 9 10 10 5 3 4 4 4 4 4 4 3 3 3 3 3 2 2 2 3 3 3 4 4 3 3 2 2 2 2 2 2 3 3
7 8 8 9 9 15 5 3 7 8 8 7 6 3 5 4 3 3 3 3 3 3 3 3 3 3 2 2 2 2 2 2 2 2 2 2 3 2 2 2 3 3 3 3
8 8 8 9 12 12 6 4 6 8 8 5 5 5 4 4 5 5 3 2 3 3 3 2 2 3 2 2 2 2 2 2 2 2 1 1 1 2 2 3 3 3 3 4
7 8 9 9 12 12 4 3 2 7 8 4 5 6 6 6 6 3 4 3 3 3 3 2 2 3 3 2 1 1 1 1 1 1 1 2 2 2 3 3 3 3 3 4
9 9 11 12 12 8 4 3 4 9 2 2 4 4 6 6 2 4 4 4 3 3 3 3 3 3 2 2 1 1 1 0 1 1 1 1 2 2 3 3 3 3 3 3
9 8 9 10 12 6 5 4 4 3 3 1 3 4 4 3 2 4 4 4 4 4 4 3 3 2 2 1 1 1 1 1 1 1 1 1 2 3 2 2 3 3 3 4
6 5 5 5 2 4 1 2 3 3 2 2 3 3 4 4 4 4 4 4 4 3 3 3 3 3 2 1 1 1 1 1 1 1 1 2 2 2 2 3 3 3 3 4
4 1 4 4 2 0 1 2 2 3 3 3 2 3 4 4 4 4 4 4 4 3 3 3 3 2 2 1 1 1 1 1 1 1 2 2 2 2 2 3 3 3 3 3
2 3 4 5 2 2 2 1 1 2 1 1 1 2 3 3 3 3 3 3 3 3 3 2 2 2 1 1 0 1 1 1 1 2 2 3 2 2 2 2 2 3 3 3
5 5 6 4 1 3 2 2 2 1 1 0 0 1 1 2 3 3 3 3 3 3 3 2 2 2 1 1 1 1 2 2 3 3 3 3 3 2 3 2 1 1 1 1
Wind_Direction
207 233 229 229 264 315 299 282 269 94 125 246 239 218 167 174 192 191 191 191 192 192 187 186 189 191 190 189 190 192 195 187 192 194 203 204 206 212 212 219 220 233 238 224
213 227 247 253 226 246 252 255 235 149 123 271 271 242 178 182 198 201 200 199 197 191 185 188 191 193 194 192 193 192 194 191 196 197 207 214 221 225 226 232 219 237 239 237
231 203 180 226 224 236 241 259 280 279 218 225 263 210 177 181 194 200 207 205 202 197 191 189 194 195 195 194 195 195 196 196 201 200 200 203 208 225 219 214 214 231 240 244
231 209 215 233 236 249 240 250 263 247 247 240 266 276 148 173 184 197 204 203 203 198 198 195 194 195 197 195 193 194 193 197 198 199 206 212 220 227 231 236 222 227 232 242
214 213 229 240 246 256 277 264 248 252 258 265 242 271 139 159 178 188 201 205 204 199 199 197 197 195 196 192 190 188 190 196 196 201 203 214 228 228 226 227 220 235 226 234
240 224 244 246 239 230 191 207 215 237 251 255 265 271 276 89 28 38 177 196 200 198 194 193 191 188 190 186 187 185 185 192 195 200 204 211 223 230 234 233 234 229 220 223
209 200 197 210 205 185 212 232 234 230 230 246 177 262 335 37 21 350 340 182 191 189 187 184 184 183 183 183 185 183 183 189 193 199 204 207 217 222 225 234 232 247 246 234
212 203 188 204 234 231 230 253 264 274 275 249 196 250 55 43 31 21 72 129 164 176 175 173 177 180 181 181 182 183 184 189 193 198 204 210 217 223 225 226 244 241 254 255
232 212 171 194 229 246 229 241 273 273 272 274 252 236 200 105 94 77 85 104 137 157 162 163 166 174 176 178 178 182 182 188 193 195 199 209 216 228 238 237 237 243 243 246
247 241 194 176 195 210 273 254 243 258 267 270 252 243 249 194 178 109 89 89 108 145 159 160 163 165 172 175 175 181 182 185 191 195 200 197 210 221 233 243 247 254 252 252
241 238 209 198 222 220 203 222 245 258 268 274 274 250 63 161 135 134 102 88 100 132 147 154 159 162 165 170 171 175 177 179 186 196 198 203 202 208 219 230 240 244 250 245
227 243 234 219 212 267 241 239 235 247 251 259 274 259 101 117 104 108 98 93 103 123 135 144 146 153 162 164 167 171 178 183 187 187 192 202 203 206 214 218 228 236 243 247
208 237 230 215 198 202 224 228 239 253 252 254 262 228 129 136 145 123 108 102 110 123 131 139 140 147 159 162 164 169 182 187 187 186 193 198 202 208 218 221 224 234 241 249
235 240 245 253 256 218 221 225 231 243 250 254 261 260 211 201 201 153 125 124 121 126 129 128 132 141 147 151 160 172 179 183 184 182 186 196 208 213 219 225 229 236 242 244
237 239 241 256 262 251 242 233 228 239 257 266 272 264 243 216 205 164 142 138 135 135 134 135 138 136 144 150 160 169 170 169 174 178 183 191 200 203 213 224 228 231 238 241
234 248 238 241 241 244 248 241 235 239 249 256 263 260 249 183 175 169 173 164 155 147 143 141 140 142 151 157 163 162 158 151 153 164 174 176 191 200 206 216 227 233 236 243
223 232 239 243 235 245 243 236 236 239 247 257 256 254 187 189 189 189 186 174 162 152 144 145 145 143 141 149 154 160 157 160 171 181 190 189 201 210 212 219 217 229 236 241
231 235 241 247 235 244 247 232 242 245 243 248 258 231 200 201 181 180 177 170 160 152 133 123 133 131 135 137 133 141 152 165 181 192 199 205 218 225 227 231 234 237 239 241
225 227 242 243 241 244 218 200 219 236 238 230 230 208 185 173 174 175 167 159 155 143 123 112 107 107 106 114 122 138 154 166 187 198 212 225 225 227 234 244 252 255 253 251
196 219 240 239 250 250 228 145 236 241 231 202 215 201 188 191 220 171 150 159 152 134 121 114 109 103 106 107 120 147 168 183 220 234 240 251 240 237 247 256 263 264 259 260
198 211 232 240 247 249 82 124 204 234 260 150 206 205 202 213 275 110 138 151 149 132 122 118 110 98 94 100 108 98 63 1 339 308 285 282 269 252 254 259 264 270 269 276
227 223 225 238 243 232 96 178 237 341 4 223 218 213 213 206 135 139 150 153 151 141 133 126 113 100 91 98 121 109 61 20 5 331 297 289 280 275 274 272 274 277 278 268
242 276 269 265 287 49 6 299 345 317 288 255 229 215 200 189 170 160 162 162 155 152 144 142 135 123 111 100 98 90 49 21 1 337 311 300 292 281 283 272 270 263 262 273
193 272 259 249 201 7 281 281 296 303 302 281 252 219 200 191 184 172 166 159 155 158 159 159 156 147 131 122 94 50 24 17 341 297 291 285 285 283 280 278 283 288 297 298
258 219 235 242 235 217 211 288 338 355 339 311 266 221 203 192 186 177 168 166 168 166 169 172 173 172 162 154 105 341 329 312 293 285 285 287 284 287 279 281 316 307 335 335
226 234 248 264 272 274 292 321 307 306 315 328 210 177 166 172 176 182 175 172 175 177 176 184 189 187 192 209 222 294 293 287 276 265 267 278 285 285 278 267 254 110 231 228